Location: La Brionne
(46.1728°N, 1.7849°E)
Time: 16:54:56
(UTC+00:00)

Cosmos 1544 Rocket - Pass Details

Date: 26 October 2021
Orbit: 603 x 632 km, 82.5° (Epoch: 27 November)

Event Time Altitude Azimuth Distance (km) Brightness Sun altitude
Rises 17:53:08 0° 191° (S) 2,911 7.2 -11.9°
Reaches altitude 10° 17:55:22 10° 193° (SSW) 2,008 6.4 -12.3°
Maximum altitude 17:59:49 77° 279° (W) 653 3.8 -13.1°
Drops below altitude 10° 18:04:19 10° 6° (N) 2,018 6.1 -13.9°
Sets 18:06:33 0° 8° (N) 2,927 6.9 -14.2°
